Weather in Bolshiye Abakasy

Russia / Chuvash Republic     55°23′02″N   47°02′20″E
temp.,
°C
wind,
m/s
gust,
m/s
humid.,
%
clouds,
%
prec.,
mm/h
press.,
hPa
HPBL,
m
19 september, sun
sun1900:00+1nw22818 0.0 102519
03:000nnw228977 0.0 102613
06:000nnw2286100 0.0 102616
09:00+5nnw335851 0.0 1026608
12:00+9nnw334279 0.0 10261177
15:00+10n233990 0.0 10251279
18:00+5nne115598 0.0 102510
21:00+3ene226587 0.0 102525
20 september, mon
mon2000:00+2ene3372100 0.0 102643
03:00+1ene3779100 0.0 1027148
06:00+1e4980100 0.0 1027261
09:00+5e5759100 0.0 1027514
12:00+7e5651100 0.0 1026874
15:00+8e5747100 0.0 10251011
18:00+6e4954100 0.0 1025306
21:00+5e51157100 0.0 1025341
21 september, tue
tue2100:00+6e51155100 0.0 1024422
03:00+6e51158100 0.0 1024441
06:00+5e61171100 0.1 1023402
09:00+8e71159100 0.1 1022891
12:00+7ese61262100 0.1 1021756
15:00+6e71373100 0.6 1020682
18:00+6e6137590 0.1 1019594
21:00+7ese61174100 0.1 1018508
22 september, wed
wed2200:00+6e51179100 0.0 1017352
03:00+6e5117797 0.0 1016342
06:00+8e6136897 0.0 1015478
09:00+9e71370100 0.0 1014573
12:00+9ese71385100 0.1 1014617
15:00+9ese71395100 2.6 1013637
18:00+9ese71293100 2.3 1013688
21:00+8se51093100 3.0 1014488
23 september, thu
thu2300:00+9se3697100 0.0 1015236
03:00+9ese249596 0.0 1015107
06:00+7ese369850 0.0 1016118
09:00+10ese4686100 0.0 1015316
12:00+13se4664100 0.1 1015591
15:00+13se4763100 0.1 1014688
18:00+10sse51291100 0.1 1014409
21:00+10se61295100 0.9 1013639